Location: Lewisville
(33.0462°N, 96.9942°W)
Time: 11:49:34
(UTC-06:00)

Hubble Space Telescope - Pass Details

Date: 13 December 2021
Orbit: 534 x 538 km, 28.5° (Epoch: 19 January)

Event Time Altitude Azimuth Distance (km) Brightness Sun altitude
Rises 19:07:02 0° 223° (SW) 2,666 5.3 -21.3°
Reaches altitude 10° 19:09:48 10° 205° (SSW) 1,778 3.9 -21.9°
Enters shadow 19:12:33 19° 163° (SSE) 1,325 2.7 -22.4°
